Free Severe Weather Alerts by Email and Text Message   

 
Follow iAlert.com on twitter @ialertcom
Search For Active Alerts in Your Area  
  Hi Guest:  [ Sign-up / Services ] [ Login ]

Current weather by "City, St" or "zip code"  

 

Advertise Here

Hazardous Weather Conditions

No active alerts for DENVER, COLORADO

Current Conditions: DENVER, COLORADO

Fair


41.0 F

Last Updated on Apr 27 2017, 11:53 pm MDT
Humidity: 42%
Wind Speed: W 11.5 mph
Barometer 29.64 in
Dewpoint: 19.4 F
Visibility: 10.00 mi
Precip: --
Heat Index: NA
Wind Chill: 34 F
Current conditions at:

Broomfield / Jeffco, CO (KBJC)

Lat: 39.90 Lon: -105.10

Local Radar Image active severe weather and emergency alerts image image weather storm and storm spotter reports image weather observation monitoring service image
Local
Radar
Active
Alerts
Storm Reports Weather
Monitoring

Weather Alert Notification Services


ialert severe weather and emergency alerts by text message and email ialert daily weather forecast by email and text message service ialert real-time weather-observation monitoring and alert notification service ialert storm report monitoring alert notification

Observation History for DENVER, COLORADO


Time Wind
(mph)
Vis
(mi)
Weather Precip (in) Temperature (F) Relative
Humidity
Wind
Chill
(°F)
Heat
Index
(°F)
Pressure
Air Dwpt altimeter
(in)
sea level
(mb)
11:53 pm MDT W 11.5 10.00 Fair -- 41.0 19.4 42% 34 NA 29.64 M
9:47 pm MDT W 12.7 30.00 Mostly Cloudy -- 45.0 17.6 34% 39 NA 29.65 M
8:52 pm MDT W 6.9 30.00 Showers in Vicinity -- 45.0 24.8 46% 41 NA 29.63 M
7:53 pm MDT N 0.0 30.00 Showers in Vicinity -- 46.0 35.6 66% NA NA 29.61 M
6:47 pm MDT NW 11.5 G 17.3 30.00 Mostly Cloudy -- 50.0 21.2 32% 46 NA 29.55 M
5:47 pm MDT N 4.6 30.00 Mostly Cloudy -- 54.0 32.0 44% 53 NA 29.55 M
4:45 pm MDT N 8.1 30.00 Mostly Cloudy -- 54.0 35.6 51% 52 NA 29.52 M
3:51 pm MDT N 10.4 20.00 Mostly Cloudy -- 54.0 39.2 58% 51 NA 29.53 M
2:47 pm MDT N 11.5 20.00 Mostly Cloudy -- 46.0 41.0 82% 41 NA 29.53 M
1:45 pm MDT N 9.2 20.00 Overcast -- 46.0 39.2 76% 41 NA 29.55 M
12:48 pm MDT N 6.9 20.00 Overcast -- 46.0 39.2 76% 42 NA 29.54 M
11:48 am MDT NW 13.8 10.00 Light Rain -- 43.0 39.2 87% 36 NA 29.55 M
10:47 am MDT N 11.5 30.00 Overcast -- 48.0 37.4 66% 43 NA 29.54 M
9:53 am MDT N 8.1 25.00 Overcast -- 45.0 37.4 76% 41 NA 29.55 M
8:51 am MDT N 3.5 25.00 Mostly Cloudy -- 43.0 37.4 81% NA NA 29.57 M
7:48 am MDT W 8.1 50.00 Mostly Cloudy -- 41.0 35.6 81% 36 NA 29.59 M
6:50 am MDT NW 11.5 50.00 Mostly Cloudy -- 39.0 35.6 87% 32 NA 29.57 M
5:54 am MDT NW 4.6 10.00 Mostly Cloudy -- 39.0 35.6 87% 36 NA 29.57 M
4:54 am MDT N 12.7 10.00 Overcast -- 41.0 35.6 81% 34 NA 29.58 M
4:34 am MDT NW 12.7 G 16.1 10.00 Mostly Cloudy -- 41.0 35.6 81% 34 NA 29.59 M
3:53 am MDT NW 12.7 10.00 Fair -- 41.0 35.6 81% 34 NA 29.60 M
2:54 am MDT NW 12.7 10.00 Fair -- 41.0 35.6 81% 34 NA 29.61 M
1:54 am MDT NW 10.4 10.00 Fair -- 41.0 33.8 76% 35 NA 29.65 M
12:54 am MDT N 0.0 10.00 Partly Cloudy -- 45.0 32.0 61% NA NA 29.67 M

Regional Weather Observation:


Erie Municipal Airport, CO (KEIK)

Fair
35.0 F

Boulder Municipal Airport, CO (KBDU)

Fair
39.0 F

Fort Collins/Loveland - Northern Colorado Regional Airport, CO (KFNL)

Fair
38.0 F

Buckley Air Force Base Airport, CO (KBKF)

Mostly Cloudy
40.0 F

Denver, Denver International Airport, CO (KDEN)

Mostly Cloudy
33.0 F

Denver - Centennial Airport, CO (KAPA)

A Few Clouds
42.0 F

Advertise Here


Advertise Here